| time (UTC) | temp F | wind direction | speed MPH | gust MPH | rain 1hr in | rain 24hr in | rain mn in | humidity % | barometer mb |
| 20260506072349 | 52 | 355 | 0.0 | 0.0 | 0.00 | 0.00 | 0.00 | 87 | 1018.8 |
| 20260506071544 | 52 | 355 | 0.0 | 1.0 | 0.00 | 0.00 | 0.00 | 85 | 1018.7 |
| 20260506071347 | 52 | 355 | 0.0 | 1.0 | 0.00 | 0.00 | 0.00 | 86 | 1018.7 |
| 20260506070331 | 52 | 355 | 2.0 | 3.0 | 0.00 | 0.00 | 0.00 | 86 | 1018.6 |
| 20260506062326 | 53 | 263 | 1.0 | 3.0 | 0.00 | 0.00 | 0.00 | 84 | 1018.4 |
| 20260506061547 | 53 | 155 | 0.0 | 0.0 | 0.00 | 0.00 | 0.00 | 83 | 1018.3 |
| 20260506061354 | 53 | 155 | 0.0 | 0.0 | 0.00 | 0.00 | 0.00 | 83 | 1018.3 |
| 20260506060323 | 54 | 155 | 0.0 | 2.0 | 0.00 | 0.00 | 0.00 | 82 | 1018.2 |
| 20260506051350 | 55 | 305 | 9.0 | 13.0 | 0.00 | 0.00 | 0.00 | 82 | 1017.9 |
| 20260506050350 | 55 | 296 | 11.0 | 13.0 | 0.00 | 0.00 | 0.00 | 82 | 1017.7 |
| 20260506044524 | 55 | 297 | 11.0 | 15.0 | 0.00 | 0.00 | 0.00 | 81 | 1017.4 |
| 20260506044323 | 55 | 289 | 11.0 | 15.0 | 0.00 | 0.00 | 0.00 | 81 | 1017.5 |
| 20260506043328 | 55 | 313 | 10.0 | 14.0 | 0.00 | 0.00 | 0.00 | 80 | 1017.3 |
| 20260506043053 | 55 | 312 | 11.0 | 14.0 | 0.00 | 0.00 | 0.00 | 80 | 1017.2 |
| 20260506042355 | 56 | 299 | 10.0 | 14.0 | 0.00 | 0.00 | 0.00 | 80 | 1017.1 |
| 20260506041530 | 55 | 311 | 10.0 | 13.0 | 0.00 | 0.00 | 0.00 | 80 | 1016.9 |
| 20260506041325 | 56 | 295 | 9.0 | 13.0 | 0.00 | 0.00 | 0.00 | 79 | 1017.1 |
| 20260506040354 | 56 | 286 | 10.0 | 13.0 | 0.00 | 0.00 | 0.00 | 79 | 1016.7 |
| 20260506035336 | 56 | 309 | 10.0 | 15.0 | 0.00 | 0.00 | 0.00 | 78 | 1016.7 |
| 20260506034510 | 56 | 311 | 12.0 | 16.0 | 0.00 | 0.00 | 0.00 | 78 | 1016.6 |
| 20260506034328 | 57 | 291 | 10.0 | 14.0 | 0.00 | 0.00 | 0.00 | 77 | 1016.6 |
| 20260506033337 | 57 | 306 | 12.0 | 15.0 | 0.00 | 0.00 | 0.00 | 77 | 1016.4 |
| 20260506033002 | 57 | 296 | 11.0 | 18.0 | 0.00 | 0.00 | 0.00 | 77 | 1016.2 |
| 20260506032328 | 57 | 288 | 14.0 | 18.0 | 0.00 | 0.00 | 0.00 | 76 | 1016.1 |
| 20260506031553 | 57 | 321 | 13.0 | 16.0 | 0.00 | 0.00 | 0.00 | 75 | 1016.0 |
| 20260506031357 | 58 | 297 | 13.0 | 19.0 | 0.00 | 0.00 | 0.00 | 75 | 1016.1 |
| 20260506030327 | 58 | 294 | 14.0 | 19.0 | 0.00 | 0.00 | 0.00 | 74 | 1016.0 |
| 20260506030022 | 58 | 309 | 15.0 | 19.0 | 0.00 | 0.00 | 0.00 | 74 | 1015.8 |
| 20260506025333 | 59 | 317 | 14.0 | 18.0 | 0.00 | 0.00 | 0.00 | 73 | 1015.9 |
| 20260506024511 | 59 | 281 | 15.0 | 23.0 | 0.00 | 0.00 | 0.00 | 72 | 1015.7 |
| 20260506024323 | 59 | 312 | 16.0 | 23.0 | 0.00 | 0.00 | 0.00 | 71 | 1015.8 |
| 20260506023329 | 60 | 309 | 15.0 | 19.0 | 0.00 | 0.00 | 0.00 | 70 | 1015.8 |
| 20260506023005 | 60 | 298 | 14.0 | 19.0 | 0.00 | 0.00 | 0.00 | 69 | 1015.6 |
| 20260506022339 | 61 | 296 | 14.0 | 24.0 | 0.00 | 0.00 | 0.00 | 68 | 1015.6 |
| 20260506021519 | 61 | 304 | 17.0 | 22.0 | 0.00 | 0.00 | 0.00 | 67 | 1015.5 |
| 20260506021329 | 61 | 296 | 17.0 | 21.0 | 0.00 | 0.00 | 0.00 | 67 | 1015.5 |
| 20260506020335 | 62 | 297 | 16.0 | 22.0 | 0.00 | 0.00 | 0.00 | 66 | 1015.5 |
| 20260506020126 | 61 | 318 | 17.0 | 22.0 | 0.00 | 0.00 | 0.00 | 66 | 1015.5 |
| 20260506015325 | 62 | 314 | 15.0 | 22.0 | 0.00 | 0.00 | 0.00 | 65 | 1015.5 |
| 20260506014514 | 62 | 319 | 14.0 | 22.0 | 0.00 | 0.00 | 0.00 | 64 | 1015.4 |
| 20260506014336 | 63 | 285 | 16.0 | 22.0 | 0.00 | 0.00 | 0.00 | 64 | 1015.5 |
| 20260506013326 | 64 | 322 | 14.0 | 21.0 | 0.00 | 0.00 | 0.00 | 63 | 1015.3 |
| 20260506013006 | 63 | 309 | 15.0 | 21.0 | 0.00 | 0.00 | 0.00 | 63 | 1015.3 |
| 20260506012339 | 64 | 304 | 15.0 | 22.0 | 0.00 | 0.00 | 0.00 | 62 | 1015.4 |
| 20260506011525 | 64 | 317 | 14.0 | 22.0 | 0.00 | 0.00 | 0.00 | 61 | 1015.3 |
| 20260506011324 | 65 | 322 | 16.0 | 25.0 | 0.00 | 0.00 | 0.00 | 61 | 1015.4 |
| 20260506010326 | 65 | 325 | 15.0 | 25.0 | 0.00 | 0.00 | 0.00 | 61 | 1015.5 |
| 20260506010045 | 64 | 306 | 17.0 | 25.0 | 0.00 | 0.00 | 0.00 | 61 | 1015.3 |
| 20260506005353 | 65 | 277 | 18.0 | 25.0 | 0.00 | 0.00 | 0.00 | 59 | 1015.4 |
| 20260506004526 | 65 | 274 | 15.0 | 21.0 | 0.00 | 0.00 | 0.00 | 58 | 1015.3 |
| 20260506004325 | 65 | 313 | 14.0 | 20.0 | 0.00 | 0.00 | 0.00 | 58 | 1015.4 |
| 20260506003334 | 65 | 309 | 14.0 | 19.0 | 0.00 | 0.00 | 0.00 | 58 | 1015.3 |
| 20260506003020 | 64 | 317 | 15.0 | 21.0 | 0.00 | 0.00 | 0.00 | 59 | 1015.2 |
| 20260506002326 | 65 | 284 | 15.0 | 21.0 | 0.00 | 0.00 | 0.00 | 59 | 1015.3 |
| 20260506001538 | 64 | 282 | 14.0 | 21.0 | 0.00 | 0.00 | 0.00 | 60 | 1015.1 |
| 20260506001337 | 64 | 264 | 14.0 | 19.0 | 0.00 | 0.00 | 0.00 | 60 | 1015.2 |
| 20260506000323 | 64 | 300 | 13.0 | 21.0 | 0.00 | 0.00 | 0.00 | 60 | 1015.2 |
| 20260506000006 | 64 | 306 | 16.0 | 21.0 | 0.00 | 0.00 | 0.00 | 59 | 1015.0 |
| 20260505235335 | 65 | 274 | 15.0 | 20.0 | 0.00 | 0.00 | 0.00 | 59 | 1015.0 |
| 20260505234523 | 65 | 281 | 15.0 | 23.0 | 0.00 | 0.00 | 0.00 | 58 | 1015.1 |
| 20260505234326 | 65 | 302 | 15.0 | 23.0 | 0.00 | 0.00 | 0.00 | 58 | 1015.0 |
| 20260505233334 | 66 | 262 | 15.0 | 19.0 | 0.00 | 0.00 | 0.00 | 57 | 1015.0 |
| 20260505233014 | 65 | 275 | 14.0 | 19.0 | 0.00 | 0.00 | 0.00 | 57 | 1014.9 |
| 20260505232325 | 66 | 280 | 14.0 | 23.0 | 0.00 | 0.00 | 0.00 | 56 | 1015.1 |
| 20260505231530 | 67 | 297 | 15.0 | 20.0 | 0.00 | 0.00 | 0.00 | 54 | 1014.9 |
| 20260505231334 | 67 | 307 | 15.0 | 20.0 | 0.00 | 0.00 | 0.00 | 54 | 1015.0 |
| 20260505230325 | 68 | 267 | 14.0 | 21.0 | 0.00 | 0.00 | 0.00 | 53 | 1015.0 |
| 20260505230031 | 66 | 298 | 12.0 | 21.0 | 0.00 | 0.00 | 0.00 | 54 | 1015.1 |
| 20260505225353 | 66 | 288 | 14.0 | 20.0 | 0.00 | 0.00 | 0.00 | 54 | 1015.1 |
| 20260505224511 | 66 | 298 | 12.0 | 21.0 | 0.00 | 0.00 | 0.00 | 54 | 1015.2 |
| 20260505224337 | 66 | 271 | 14.0 | 23.0 | 0.00 | 0.00 | 0.00 | 53 | 1015.3 |
| 20260505223325 | 67 | 316 | 14.0 | 22.0 | 0.00 | 0.00 | 0.00 | 53 | 1015.3 |
| 20260505223001 | 66 | 306 | 14.0 | 23.0 | 0.00 | 0.00 | 0.00 | 54 | 1015.2 |
| 20260505222335 | 66 | 316 | 17.0 | 23.0 | 0.00 | 0.00 | 0.00 | 53 | 1015.3 |
| 20260505221515 | 66 | 284 | 13.0 | 21.0 | 0.00 | 0.00 | 0.00 | 54 | 1015.1 |
| 20260505221324 | 66 | 283 | 15.0 | 21.0 | 0.00 | 0.00 | 0.00 | 53 | 1015.2 |
| 20260505220334 | 67 | 267 | 12.0 | 23.0 | 0.00 | 0.00 | 0.00 | 53 | 1015.3 |
| 20260505220107 | 66 | 265 | 15.0 | 23.0 | 0.00 | 0.00 | 0.00 | 53 | 1015.2 |
| 20260505215345 | 66 | 268 | 12.0 | 17.0 | 0.00 | 0.00 | 0.00 | 53 | 1015.5 |
| 20260505214534 | 65 | 294 | 12.0 | 18.0 | 0.00 | 0.00 | 0.00 | 52 | 1015.4 |
| 20260505214329 | 66 | 268 | 14.0 | 20.0 | 0.00 | 0.00 | 0.00 | 51 | 1015.5 |
| 20260505213333 | 66 | 271 | 10.0 | 18.0 | 0.00 | 0.00 | 0.00 | 50 | 1015.6 |
| 20260505213007 | 66 | 305 | 14.0 | 18.0 | 0.00 | 0.00 | 0.00 | 50 | 1015.6 |
| 20260505212337 | 66 | 313 | 11.0 | 18.0 | 0.00 | 0.00 | 0.00 | 51 | 1015.6 |
| 20260505211626 | 66 | 299 | 10.0 | 19.0 | 0.00 | 0.00 | 0.00 | 50 | 1015.6 |
| 20260505211352 | 66 | 292 | 11.0 | 19.0 | 0.00 | 0.00 | 0.00 | 50 | 1015.6 |
| 20260505210400 | 65 | 316 | 6.0 | 18.0 | 0.00 | 0.00 | 0.00 | 49 | 1015.7 |
| 20260505210002 | 65 | 321 | 14.0 | 18.0 | 0.00 | 0.00 | 0.00 | 49 | 1015.6 |
| 20260505205325 | 65 | 322 | 11.0 | 17.0 | 0.00 | 0.00 | 0.00 | 49 | 1015.9 |
| 20260505204608 | 64 | 313 | 10.0 | 17.0 | 0.00 | 0.00 | 0.00 | 49 | 1015.8 |
| 20260505204324 | 64 | 315 | 8.0 | 17.0 | 0.00 | 0.00 | 0.00 | 50 | 1016.0 |
| 20260505203326 | 64 | 276 | 11.0 | 16.0 | 0.00 | 0.00 | 0.00 | 54 | 1015.9 |
| 20260505203030 | 63 | 249 | 9.0 | 16.0 | 0.00 | 0.00 | 0.00 | 53 | 1015.7 |
| 20260505202337 | 64 | 270 | 11.0 | 18.0 | 0.00 | 0.00 | 0.00 | 53 | 1015.9 |
| 20260505201522 | 62 | 281 | 7.0 | 17.0 | 0.00 | 0.00 | 0.00 | 57 | 1015.9 |
| 20260505201326 | 63 | 313 | 12.0 | 17.0 | 0.00 | 0.00 | 0.00 | 56 | 1016.1 |
| 20260505200330 | 62 | 300 | 12.0 | 17.0 | 0.00 | 0.00 | 0.00 | 56 | 1016.2 |
| 20260505195339 | 62 | 296 | 9.0 | 16.0 | 0.00 | 0.00 | 0.00 | 58 | 1016.2 |
| 20260505194514 | 62 | 324 | 12.0 | 18.0 | 0.00 | 0.00 | 0.00 | 58 | 1016.2 |
| 20260505194331 | 63 | 327 | 14.0 | 18.0 | 0.00 | 0.00 | 0.00 | 57 | 1016.2 |
| 20260505193335 | 63 | 325 | 11.0 | 18.0 | 0.00 | 0.00 | 0.00 | 58 | 1016.2 |
| 20260505193040 | 62 | 344 | 10.0 | 18.0 | 0.00 | 0.00 | 0.00 | 59 | 1016.1 |
| 20260505192345 | 62 | 325 | 12.0 | 18.0 | 0.00 | 0.00 | 0.00 | 59 | 1016.3 |
| 20260505191603 | 62 | 294 | 13.0 | 17.0 | 0.00 | 0.00 | 0.00 | 59 | 1016.2 |
| 20260505191325 | 62 | 283 | 11.0 | 18.0 | 0.00 | 0.00 | 0.00 | 59 | 1016.4 |
| 20260505190338 | 63 | 298 | 13.0 | 18.0 | 0.00 | 0.00 | 0.00 | 58 | 1016.4 |
| 20260505190032 | 62 | 294 | 12.0 | 19.0 | 0.00 | 0.00 | 0.00 | 59 | 1016.3 |
| 20260505185342 | 63 | 292 | 14.0 | 22.0 | 0.00 | 0.00 | 0.00 | 59 | 1016.3 |
| 20260505184521 | 62 | 304 | 14.0 | 20.0 | 0.00 | 0.00 | 0.00 | 58 | 1016.2 |
| 20260505184332 | 63 | 286 | 12.0 | 20.0 | 0.00 | 0.00 | 0.00 | 58 | 1016.3 |
| 20260505183322 | 62 | 302 | 12.0 | 20.0 | 0.00 | 0.00 | 0.00 | 59 | 1016.2 |
| 20260505183014 | 62 | 302 | 15.0 | 20.0 | 0.00 | 0.00 | 0.00 | 58 | 1016.1 |
| 20260505182331 | 62 | 340 | 13.0 | 19.0 | 0.00 | 0.00 | 0.00 | 58 | 1016.1 |
| 20260505181526 | 62 | 323 | 14.0 | 20.0 | 0.00 | 0.00 | 0.00 | 57 | 1016.0 |
| 20260505181339 | 63 | 319 | 11.0 | 20.0 | 0.00 | 0.00 | 0.00 | 58 | 1016.0 |
| 20260505180325 | 63 | 266 | 9.0 | 16.0 | 0.00 | 0.00 | 0.00 | 59 | 1015.9 |
| 20260505180014 | 62 | 332 | 11.0 | 16.0 | 0.00 | 0.00 | 0.00 | 58 | 1015.9 |
| 20260505175337 | 62 | 315 | 11.0 | 16.0 | 0.00 | 0.00 | 0.00 | 60 | 1015.9 |
| 20260505174537 | 61 | 311 | 9.0 | 15.0 | 0.00 | 0.00 | 0.00 | 61 | 1015.8 |
| 20260505174327 | 61 | 271 | 10.0 | 15.0 | 0.00 | 0.00 | 0.00 | 61 | 1015.9 |
| 20260505173335 | 61 | 284 | 9.0 | 17.0 | 0.00 | 0.00 | 0.00 | 63 | 1015.8 |
| 20260505173105 | 60 | 319 | 7.0 | 17.0 | 0.00 | 0.00 | 0.00 | 64 | 1015.6 |
| 20260505172322 | 60 | 325 | 9.0 | 15.0 | 0.00 | 0.00 | 0.00 | 66 | 1015.8 |
| 20260505171518 | 59 | 265 | 9.0 | 12.0 | 0.00 | 0.00 | 0.00 | 70 | 1015.7 |
| 20260505171331 | 59 | 321 | 7.0 | 10.0 | 0.00 | 0.00 | 0.00 | 70 | 1015.9 |
| 20260505170322 | 59 | 11 | 4.0 | 12.0 | 0.00 | 0.00 | 0.00 | 71 | 1016.0 |
| 20260505170004 | 58 | 257 | 7.0 | 12.0 | 0.00 | 0.00 | 0.00 | 72 | 1015.9 |
| 20260505165332 | 58 | 259 | 7.0 | 11.0 | 0.00 | 0.00 | 0.00 | 73 | 1015.9 |
| 20260505164516 | 57 | 254 | 3.0 | 11.0 | 0.00 | 0.00 | 0.00 | 75 | 1015.8 |
| 20260505164336 | 57 | 234 | 6.0 | 11.0 | 0.00 | 0.00 | 0.00 | 75 | 1015.9 |
| 20260505163329 | 56 | 247 | 3.0 | 5.0 | 0.00 | 0.00 | 0.00 | 77 | 1016.1 |
| 20260505163014 | 56 | 248 | 4.0 | 7.0 | 0.00 | 0.00 | 0.00 | 77 | 1015.9 |
| 20260505162338 | 56 | 244 | 4.0 | 7.0 | 0.00 | 0.00 | 0.00 | 77 | 1016.1 |
| 20260505161524 | 55 | 258 | 4.0 | 8.0 | 0.00 | 0.00 | 0.00 | 77 | 1015.8 |
| 20260505161327 | 56 | 271 | 4.0 | 8.0 | 0.00 | 0.00 | 0.00 | 78 | 1015.9 |
| 20260505160338 | 55 | 256 | 4.0 | 6.0 | 0.00 | 0.00 | 0.00 | 78 | 1015.8 |
| 20260505153327 | 54 | 209 | 1.0 | 3.0 | 0.00 | 0.00 | 0.00 | 80 | 1016.0 |
| 20260505153034 | 54 | 209 | 1.0 | 3.0 | 0.00 | 0.00 | 0.00 | 80 | 1015.8 |
| 20260505152354 | 54 | 235 | 0.0 | 4.0 | 0.00 | 0.00 | 0.00 | 80 | 1015.9 |
| 20260505151515 | 53 | 226 | 3.0 | 4.0 | 0.00 | 0.00 | 0.00 | 81 | 1015.7 |
| 20260505151324 | 53 | 250 | 2.0 | 4.0 | 0.00 | 0.00 | 0.00 | 81 | 1015.8 |
| 20260505150333 | 53 | 250 | 0.0 | 3.0 | 0.00 | 0.00 | 0.00 | 82 | 1015.7 |
| 20260505140326 | 51 | 102 | 0.0 | 0.0 | 0.00 | 0.00 | 0.00 | 87 | 1015.4 |
| 20260505140110 | 51 | 102 | 0.0 | 0.0 | 0.00 | 0.00 | 0.00 | 87 | 1015.3 |
| 20260505124528 | 50 | 342 | 2.0 | 4.0 | 0.00 | 0.00 | 0.00 | 85 | 1014.9 |
| 20260505124339 | 50 | 317 | 2.0 | 4.0 | 0.00 | 0.00 | 0.00 | 85 | 1014.9 |
| 20260505123326 | 51 | 343 | 3.0 | 4.0 | 0.00 | 0.00 | 0.00 | 85 | 1015.0 |
| 20260505123101 | 51 | 340 | 3.0 | 4.0 | 0.00 | 0.00 | 0.00 | 85 | 1014.9 |
| 20260505122331 | 51 | 344 | 3.0 | 4.0 | 0.00 | 0.00 | 0.00 | 85 | 1014.9 |
| 20260505121507 | 51 | 347 | 3.0 | 4.0 | 0.00 | 0.00 | 0.00 | 85 | 1014.8 |
| 20260505121321 | 51 | 336 | 4.0 | 4.0 | 0.00 | 0.00 | 0.00 | 85 | 1014.9 |
| 20260505120332 | 51 | 333 | 0.0 | 0.0 | 0.00 | 0.00 | 0.00 | 85 | 1014.8 |
| 20260505120001 | 51 | 304 | 0.0 | 0.0 | 0.00 | 0.00 | 0.00 | 85 | 1014.8 |
| 20260505115322 | 52 | 304 | 0.0 | 0.0 | 0.00 | 0.00 | 0.00 | 85 | 1014.7 |
| 20260505114517 | 51 | 304 | 0.0 | 0.0 | 0.00 | 0.00 | 0.00 | 85 | 1014.6 |
| 20260505114334 | 52 | 304 | 0.0 | 0.0 | 0.00 | 0.00 | 0.00 | 85 | 1014.7 |
| 20260505113337 | 52 | 304 | 0.0 | 0.0 | 0.00 | 0.00 | 0.00 | 84 | 1014.7 |
| 20260505113004 | 51 | 304 | 0.0 | 0.0 | 0.00 | 0.00 | 0.00 | 84 | 1014.7 |
| 20260505112328 | 52 | 304 | 0.0 | 0.0 | 0.00 | 0.00 | 0.00 | 84 | 1014.7 |
| 20260505111506 | 52 | 304 | 0.0 | 3.0 | 0.00 | 0.00 | 0.00 | 84 | 1014.7 |
| 20260505111332 | 52 | 304 | 0.0 | 3.0 | 0.00 | 0.00 | 0.00 | 84 | 1014.7 |
| 20260505110322 | 53 | 304 | 2.0 | 5.0 | 0.00 | 0.00 | 0.00 | 84 | 1014.8 |
| 20260505110118 | 52 | 293 | 2.0 | 7.0 | 0.00 | 0.00 | 0.00 | 84 | 1014.8 |
| 20260505101533 | 52 | 286 | 2.0 | 5.0 | 0.00 | 0.00 | 0.00 | 83 | 1014.9 |
| 20260505101323 | 53 | 273 | 4.0 | 6.0 | 0.00 | 0.00 | 0.00 | 83 | 1014.9 |
| 20260505100334 | 53 | 281 | 3.0 | 7.0 | 0.00 | 0.00 | 0.00 | 83 | 1015.0 |
| 20260505100012 | 52 | 298 | 3.0 | 7.0 | 0.00 | 0.00 | 0.00 | 83 | 1014.9 |
| 20260505095338 | 52 | 306 | 3.0 | 8.0 | 0.00 | 0.00 | 0.00 | 83 | 1014.9 |
| 20260505094524 | 52 | 294 | 4.0 | 8.0 | 0.00 | 0.00 | 0.00 | 83 | 1014.8 |
| 20260505094328 | 52 | 317 | 5.0 | 8.0 | 0.00 | 0.00 | 0.00 | 83 | 1014.8 |
| 20260505093339 | 52 | 308 | 5.0 | 8.0 | 0.00 | 0.00 | 0.00 | 84 | 1014.8 |
| 20260505093017 | 52 | 296 | 5.0 | 8.0 | 0.00 | 0.00 | 0.00 | 84 | 1014.7 |
| 20260505092327 | 52 | 299 | 5.0 | 8.0 | 0.00 | 0.00 | 0.00 | 83 | 1014.8 |
| 20260505091528 | 52 | 294 | 3.0 | 5.0 | 0.00 | 0.00 | 0.00 | 83 | 1014.8 |
| 20260505091335 | 52 | 293 | 3.0 | 5.0 | 0.00 | 0.00 | 0.00 | 83 | 1014.8 |
| 20260505090325 | 53 | 285 | 3.0 | 7.0 | 0.00 | 0.00 | 0.00 | 83 | 1015.0 |
| 20260505090022 | 52 | 261 | 3.0 | 7.0 | 0.00 | 0.00 | 0.00 | 83 | 1015.0 |
| 20260505085352 | 53 | 263 | 5.0 | 8.0 | 0.00 | 0.00 | 0.00 | 83 | 1015.0 |
| 20260505084606 | 52 | 272 | 4.0 | 7.0 | 0.00 | 0.00 | 0.00 | 82 | 1015.0 |
| 20260505084335 | 53 | 286 | 4.0 | 8.0 | 0.00 | 0.00 | 0.00 | 82 | 1015.1 |
| 20260505083346 | 53 | 269 | 5.0 | 8.0 | 0.00 | 0.00 | 0.00 | 82 | 1015.2 |
| 20260505083051 | 53 | 263 | 3.0 | 8.0 | 0.00 | 0.00 | 0.00 | 82 | 1015.1 |
| 20260505082331 | 53 | 273 | 4.0 | 7.0 | 0.00 | 0.00 | 0.00 | 82 | 1015.2 |
| 20260505081537 | 53 | 255 | 4.0 | 7.0 | 0.00 | 0.00 | 0.00 | 82 | 1015.1 |
| 20260505081401 | 53 | 272 | 5.0 | 7.0 | 0.00 | 0.00 | 0.00 | 81 | 1015.2 |
| 20260505080330 | 53 | 279 | 4.0 | 9.0 | 0.00 | 0.00 | 0.00 | 81 | 1015.4 |
| 20260505080008 | 53 | 302 | 4.0 | 9.0 | 0.00 | 0.00 | 0.00 | 81 | 1015.3 |
| 20260505075336 | 54 | 281 | 4.0 | 7.0 | 0.00 | 0.00 | 0.00 | 81 | 1015.4 |
| 20260505074523 | 53 | 274 | 4.0 | 8.0 | 0.00 | 0.00 | 0.00 | 80 | 1015.3 |
| 20260505074325 | 54 | 264 | 4.0 | 8.0 | 0.00 | 0.00 | 0.00 | 80 | 1015.4 |
| 20260505073357 | 54 | 272 | 7.0 | 11.0 | 0.00 | 0.00 | 0.00 | 79 | 1015.3 |
| 20260505073102 | 54 | 269 | 5.0 | 10.0 | 0.00 | 0.00 | 0.00 | 79 | 1015.2 |